sat.trackr.live / text

‹ back to catalog

SHIYAN-24C 02

NORAD 58651 · 2023-206B

PAYLOAD ACTIVE UNKNOWN

§ Identity

Operator
Country
PRC
Launch date
2023-12-25
Launch site
SCSLA
Launch vehicle
Mass (kg)
RCS (m²)

External: N2YO · Heavens-Above · Gunter

§ Orbital elements

Epoch: 2026-05-20T18:23:08.706336Z

Period
96.12 min
Inclination
97.4047°
Eccentricity
0.0001984
Mean motion
14.98077721 rev/d
Perigee alt
571.5 km
Apogee alt
574.2 km
Semi-major
6,951.0 km
B*
8.3719e-5
RAAN
109.9760°
Arg perigee
178.8372°
Mean anomaly
181.2857°
Rev number
13,120

§ Raw data

SHIYAN-24C 021 58651U 23206B   26140.76607299  .00000936  00000+0  83719-4 0  99962 58651  97.4047 109.9760 0001984 178.8372 181.2857 14.98077721131203

JSON: /api/v1/satellites/58651 · /tle

For live sub-satellite position, see the globe view (requires WebGL).

§ Visibility from observer

Set your observer location to see the next 7 days of passes ≥ 10°. The values pass through the URL so the page stays shareable.

No JS? Fill the form by hand. The geolocation button needs JavaScript.